| time (UTC) | temp F | wind direction | speed knots | gust knots | rain 1hr in | rain 24hr in | rain mn in | humidity % | barometer mb |
| 20260506213018 | 51 | 165 | 0.0 | 2.6 | 0.00 | 0.81 | 0.80 | 92 | 1012.4 |
| 20260506211512 | 50 | 142 | 0.0 | 2.6 | 0.00 | 0.81 | 0.80 | 91 | 1012.1 |
| 20260506210009 | 50 | 142 | 0.0 | 2.6 | 0.00 | 0.81 | 0.80 | 92 | 1011.8 |
| 20260506204509 | 50 | 142 | 0.9 | 2.6 | 0.00 | 0.81 | 0.80 | 91 | 1011.7 |
| 20260506203019 | 50 | 142 | 0.0 | 1.7 | 0.00 | 0.81 | 0.80 | 92 | 1011.6 |
| 20260506201510 | 50 | 142 | 0.9 | 2.6 | 0.00 | 0.81 | 0.80 | 91 | 1011.7 |
| 20260506200006 | 50 | 142 | 0.0 | 2.6 | 0.00 | 0.82 | 0.80 | 92 | 1011.6 |
| 20260506194502 | 51 | 142 | 0.0 | 1.7 | 0.00 | 0.82 | 0.80 | 91 | 1011.4 |
| 20260506193103 | 52 | 159 | 0.0 | 3.5 | 0.00 | 0.82 | 0.80 | 91 | 1011.1 |
| 20260506191504 | 52 | 218 | 0.0 | 0.0 | 0.00 | 0.82 | 0.80 | 91 | 1010.9 |
| 20260506184611 | 54 | 217 | 1.7 | 3.5 | 0.00 | 0.82 | 0.80 | 89 | 1010.3 |
| 20260506183002 | 55 | 14 | 0.0 | 0.0 | 0.00 | 0.82 | 0.80 | 88 | 1010.4 |
| 20260506181602 | 55 | 14 | 0.0 | 0.9 | 0.00 | 0.82 | 0.80 | 88 | 1010.2 |
| 20260506180006 | 55 | 14 | 0.0 | 4.3 | 0.00 | 0.82 | 0.80 | 87 | 1010.0 |
| 20260506174502 | 56 | 25 | 0.9 | 4.3 | 0.00 | 0.82 | 0.80 | 86 | 1010.0 |
| 20260506173116 | 56 | 273 | 0.9 | 2.6 | 0.00 | 0.82 | 0.80 | 85 | 1009.7 |
| 20260506171507 | 56 | 273 | 1.7 | 2.6 | 0.00 | 0.82 | 0.80 | 85 | 1009.6 |
| 20260506170103 | 56 | 273 | 1.7 | 3.5 | 0.00 | 0.82 | 0.80 | 85 | 1009.6 |
| 20260506164603 | 56 | 5 | 0.0 | 1.7 | 0.00 | 0.86 | 0.80 | 85 | 1009.6 |
| 20260506163002 | 56 | 247 | 0.9 | 3.5 | 0.00 | 0.86 | 0.80 | 83 | 1009.5 |
| 20260506161607 | 57 | 324 | 0.9 | 4.3 | 0.00 | 0.86 | 0.80 | 78 | 1009.4 |
| 20260506160002 | 57 | 25 | 2.6 | 6.1 | 0.00 | 0.93 | 0.80 | 80 | 1009.7 |
| 20260506154503 | 57 | 45 | 3.5 | 7.8 | 0.00 | 0.93 | 0.80 | 78 | 1009.9 |
| 20260506153103 | 59 | 16 | 4.3 | 8.7 | 0.00 | 0.93 | 0.80 | 76 | 1009.9 |
| 20260506151503 | 60 | 234 | 1.7 | 5.2 | 0.00 | 0.93 | 0.80 | 66 | 1009.8 |
| 20260506150108 | 61 | 17 | 0.9 | 6.1 | 0.00 | 0.93 | 0.80 | 69 | 1009.9 |
| 20260506144624 | 62 | 69 | 1.7 | 6.1 | 0.00 | 1.06 | 0.80 | 68 | 1009.9 |
| 20260506143012 | 62 | 5 | 3.5 | 7.8 | 0.00 | 1.06 | 0.80 | 65 | 1010.0 |
| 20260506141602 | 61 | 71 | 0.9 | 6.1 | 0.00 | 1.06 | 0.80 | 66 | 1010.0 |
| 20260506140007 | 61 | 28 | 2.6 | 6.1 | 0.00 | 1.06 | 0.80 | 63 | 1010.0 |
| 20260506134504 | 62 | 71 | 1.7 | 7.8 | 0.00 | 1.06 | 0.80 | 64 | 1010.1 |
| 20260506133102 | 61 | 199 | 0.9 | 4.3 | 0.00 | 1.06 | 0.80 | 68 | 1010.1 |
| 20260506131503 | 61 | 355 | 1.7 | 5.2 | 0.00 | 1.06 | 0.80 | 68 | 1010.1 |
| 20260506130140 | 0 | 46 | 0.0 | 1.7 | 0.00 | 1.06 | 0.80 | 1010.0 | |
| 20260506124604 | 0 | 113 | 0.0 | 0.9 | 0.00 | 1.06 | 0.80 | 1010.1 | |
| 20260506123003 | 0 | 182 | 0.0 | 2.6 | 0.00 | 1.06 | 0.80 | 1010.4 | |
| 20260506121604 | 0 | 216 | 0.0 | 2.6 | 0.00 | 1.06 | 0.80 | 1010.5 | |
| 20260506120003 | 0 | 5 | 0.0 | 4.3 | 0.00 | 1.06 | 0.80 | 1010.5 | |
| 20260506114502 | 0 | 22 | 2.6 | 4.3 | 0.00 | 1.06 | 0.80 | 1010.3 | |
| 20260506113108 | 0 | 306 | 0.0 | 6.1 | 0.00 | 1.06 | 0.80 | 1010.4 | |
| 20260506111502 | 0 | 98 | 4.3 | 7.8 | 0.00 | 1.06 | 0.80 | 1010.2 | |
| 20260506110105 | 0 | 290 | 1.7 | 5.2 | 0.00 | 1.06 | 0.80 | 1010.4 | |
| 20260506104541 | 0 | 15 | 0.0 | 4.3 | 0.00 | 1.06 | 0.80 | 1010.5 | |
| 20260506103037 | 0 | 52 | 3.5 | 6.1 | 0.00 | 1.06 | 0.80 | 1010.6 | |
| 20260506101547 | 0 | 37 | 0.9 | 3.5 | 0.00 | 1.06 | 0.80 | 1010.7 | |
| 20260506100031 | 57 | 206 | 0.0 | 3.5 | 0.00 | 1.06 | 0.80 | 78 | 1010.7 |
| 20260506094529 | 56 | 81 | 0.9 | 4.3 | 0.00 | 1.06 | 0.80 | 77 | 1010.7 |
| 20260506093024 | 55 | 61 | 0.0 | 3.5 | 0.00 | 1.06 | 0.80 | 80 | 1010.5 |
| 20260506091524 | 55 | 114 | 0.0 | 2.6 | 0.00 | 1.06 | 0.80 | 84 | 1010.4 |
| 20260506090021 | 54 | 94 | 0.0 | 4.3 | 0.00 | 1.06 | 0.80 | 88 | 1010.4 |
| 20260506084520 | 53 | 152 | 0.0 | 0.0 | 0.02 | 1.06 | 0.80 | 90 | 1010.3 |
| 20260506083014 | 52 | 152 | 0.0 | 1.7 | 0.02 | 1.06 | 0.80 | 92 | 1010.2 |
| 20260506081512 | 52 | 152 | 0.9 | 2.6 | 0.02 | 1.06 | 0.80 | 93 | 1010.0 |
| 20260506073100 | 51 | 180 | 0.9 | 3.5 | 0.00 | 1.28 | 0.78 | 93 | 1009.4 |
| 20260506071608 | 51 | 170 | 1.7 | 3.5 | 0.00 | 1.28 | 0.78 | 94 | 1009.2 |
| 20260506061550 | 50 | 228 | 1.7 | 4.3 | 0.00 | 1.55 | 0.78 | 94 | 1008.5 |
| 20260506044551 | 50 | 128 | 0.0 | 1.7 | 0.35 | 1.69 | 0.74 | 95 | 1007.7 |
| 20260506043046 | 50 | 82 | 1.7 | 2.6 | 0.24 | 1.57 | 0.62 | 95 | 1007.6 |
| 20260506041556 | 50 | 213 | 0.0 | 0.0 | 0.06 | 1.37 | 0.42 | 95 | 1007.2 |
| 20260506040044 | 50 | 213 | 0.0 | 2.6 | 0.07 | 1.36 | 0.41 | 95 | 1007.2 |
| 20260506034545 | 50 | 198 | 0.0 | 0.9 | 0.07 | 1.35 | 0.39 | 95 | 1007.2 |
| 20260506033042 | 50 | 198 | 0.0 | 2.6 | 0.06 | 1.33 | 0.37 | 95 | 1007.2 |
| 20260506031542 | 50 | 198 | 0.9 | 2.6 | 0.06 | 1.31 | 0.35 | 95 | 1007.3 |
| 20260506030042 | 50 | 332 | 0.0 | 0.0 | 0.09 | 1.30 | 0.34 | 95 | 1007.3 |
| 20260506024542 | 50 | 332 | 0.0 | 2.6 | 0.09 | 1.36 | 0.32 | 95 | 1007.3 |
| 20260506023039 | 50 | 222 | 0.0 | 1.7 | 0.09 | 1.35 | 0.31 | 95 | 1007.5 |
| 20260506021538 | 50 | 222 | 0.0 | 0.0 | 0.07 | 1.33 | 0.28 | 94 | 1007.6 |
| 20260506020038 | 50 | 222 | 0.0 | 2.6 | 0.03 | 1.28 | 0.24 | 94 | 1007.8 |
| 20260506014546 | 50 | 222 | 0.0 | 2.6 | 0.04 | 1.45 | 0.24 | 94 | 1007.6 |
| 20260506013038 | 50 | 222 | 0.0 | 0.0 | 0.10 | 1.44 | 0.23 | 94 | 1007.6 |
| 20260506011539 | 50 | 222 | 0.0 | 3.5 | 0.15 | 1.43 | 0.22 | 94 | 1007.8 |
| 20260506010032 | 50 | 213 | 1.7 | 2.6 | 0.17 | 1.43 | 0.21 | 94 | 1008.1 |
| 20260506004538 | 50 | 213 | 0.9 | 1.7 | 0.19 | 1.57 | 0.20 | 94 | 1008.4 |
| 20260506003026 | 50 | 213 | 0.0 | 0.0 | 0.12 | 1.50 | 0.12 | 94 | 1008.6 |
| 20260506001525 | 50 | 213 | 0.0 | 0.9 | 0.07 | 1.45 | 0.07 | 94 | 1008.8 |
| 20260506000031 | 50 | 213 | 0.0 | 2.6 | 0.05 | 1.43 | 0.05 | 94 | 1009.0 |
| 20260505234522 | 50 | 240 | 0.0 | 0.0 | 0.01 | 1.44 | 0.01 | 94 | 1009.1 |
| 20260505233019 | 50 | 213 | 0.0 | 0.0 | 0.00 | 1.43 | 0.00 | 94 | 1009.2 |
| 20260505231518 | 51 | 213 | 0.0 | 0.0 | 0.00 | 1.43 | 0.00 | 93 | 1009.3 |
| 20260505230017 | 51 | 213 | 0.0 | 0.0 | 0.00 | 1.43 | 0.00 | 93 | 1009.5 |
| 20260505224519 | 51 | 213 | 0.0 | 0.0 | 0.00 | 1.48 | 0.00 | 93 | 1009.7 |
| 20260505223012 | 51 | 213 | 0.0 | 0.0 | 0.00 | 1.48 | 0.00 | 92 | 1009.9 |
| 20260505221511 | 51 | 213 | 0.0 | 2.6 | 0.00 | 1.48 | 0.00 | 93 | 1010.1 |
| 20260505220023 | 51 | 213 | 0.0 | 2.6 | 0.02 | 1.48 | 0.00 | 92 | 1010.2 |
| 20260505214513 | 51 | 213 | 0.0 | 0.0 | 0.02 | 1.55 | 1.48 | 91 | 1010.3 |